Location: Newark
(35.2672°N, 80.7344°W)
Time: 01:00:32
(UTC+00:00)

Transit 2A Rocket - Pass Details

Date: 03 February 2020
Orbit: 591 x 911 km, 66.7° (Epoch: 20 February)

Event Time Altitude Azimuth Distance (km) Brightness Sun altitude
Rises 18:14:54 0° 323° (NW) 3,127 7.9 37.4°
Reaches altitude 10° 18:17:19 10° 314° (NW) 2,254 7.3 37.3°
Maximum altitude 18:22:02 36° 249° (WSW) 1,220 6.9 37.1°
Drops below altitude 10° 18:27:07 10° 184° (S) 2,435 8.9 36.9°
Sets 18:29:50 0° 176° (S) 3,411 9.2 36.7°
